Regional Weather Roundup
Issued by NWS Bismarck, ND

Home | Current Version | Previous Version | Text Only | Print | Product List | Glossary On
Versions: 1 2 3 4 5 6 7 8 9 10 11 12 13 14 15 16 17 18 19 20 21 22 23 24 25 26 27 28 29 30 31 32 33 34 35 36 37 38 39 40 41 42 43 44 45 46 47 48 49 50
000
ASUS43 KBIS 290210
RWRBIS

NWR BROADCAST TEXT
NATIONAL WEATHER SERVICE BISMARCK ND
900 PM CDT THU MAY 28 2015

NOTE: "FAIR" INDICATES FEW OR NO CLOUDS BELOW 12,000 FEET WITH NO
SIGNIFICANT WEATHER AND/OR OBSTRUCTIONS TO VISIBILITY.


CITY           SKY/WX    TMP DP  RH WIND       PRES   REMARKS
WILLISTON      CLOUDY    60  48  64 N29G35    30.01R
MINOT          PTCLDY    65  54  67 NW9       29.91R
MINOT AFB      MOCLDY    66  64  91 N18G25    29.92R
BISMARCK       CLOUDY    71  54  54 N12       29.85F
DICKINSON      CLOUDY    65  54  67 N9        29.91R
GARRISON         N/A     67  56  67 N7        29.91R
HETTINGER ARPT CLOUDY    59  56  89 S7        29.93R
JAMESTOWN      CLOUDY    71  59  65 N16       29.79F
BEACH          FAIR      61  50  67 N22G32    29.99R
CARRINGTON     FAIR      66  63  88 N8        29.86R
CROSBY         CLOUDY    52  50  93 N26G33    30.06R
HARVEY         FAIR      66  57  72 NW13      29.87R
HAZEN          FAIR      66  57  72 N9        29.91R
LINTON         FAIR      68  59  73 NW8       29.84S
MANDAN         FAIR      68  55  64 N9        29.87F
OAKES          LGT RAIN  63  63 100 W5        29.85R
STANLEY        CLOUDY    59  59 100 N20G28    29.98R
WATFORD CITY   FAIR      59  54  82 N17G24    29.96R
$$

CITY           SKY/WX    TMP DP  RH WIND       PRES   REMARKS
GRAND FORKS    CLOUDY    67  61  81 SE3       29.78F
GRAND FORKS AF CLOUDY    68  62  82 NE3       29.80R
DEVILS LAKE    CLOUDY    70  55  60 N17       29.85R
FARGO          CLOUDY    64  61  90 NW3       29.79R
CANDO          MOCLDY    64  54  68 N14       29.88R
GRAFTON        FAIR      66  66 100 N12       29.82R
LANGDON        FAIR      64  55  72 N15       29.87R
ROLLA          MOCLDY    61  59  94 N9        29.90R
WALHALLA         N/A     63  63 100 MISG      29.86R
$$

CITY           SKY/WX    TMP DP  RH WIND       PRES   REMARKS
ABERDEEN       TSTM      66  60  81 NW13      29.80R
MOBRIDGE       LGT RAIN  65  62  90 NW3       29.83S FOG
BUFFALO          N/A     59  54  83 N8        29.91R
RAPID CITY     CLOUDY    59  53  80 N20       29.95F
GLASGOW        CLOUDY    55  47  74 N14G25    30.13R
SIDNEY         MOCLDY    63  50  63 NW20G25   30.02R
WOLF POINT     CLOUDY    57  47  69 N21G30    30.10R
GLENDIVE       CLOUDY    59  52  77 N21G31    30.03R
MILES CITY     CLOUDY    61  51  70 N26G39    30.01R
BAKER          CLOUDY    63  54  72 N17       29.96R
$$

CITY           SKY/WX    TMP DP  RH WIND       PRES   REMARKS
BILLINGS       RAIN      55  51  86 NW10      30.14R
GREAT FALLS    CLOUDY    48  46  93 N13       30.27R
ESTEVAN        CLOUDY    50  45  81 N23G33    30.05R
$$



USA.gov is the U.S. government's official web portal to all federal, state and local government web resources and services.